星链-30515 (STARLINK-30515 )

导读 | 星芒AI

STARLINK-30515 是 SpaceX 星链计划中的一颗低轨通信卫星,属于第 30 批发射的星链卫星群。该卫星于 2023 年发射,运行在约 550 公里的轨道高度,旨在为全球用户提供高速互联网服务。作为星链网络的一部分,它通过与其他卫星协同工作,提升网络覆盖与连接稳定性。星链项目致力于改善偏远地区的网络接入,同时支持商业与军事通信需求。

基本信息
目录编号:
57983
目录名称:
STARLINK-30515
国际标识:
2023-151V
轨道中心:
EARTH
卫星名称:
星链-30515
卫星全名:
星链-30515 (STARLINK-30515 )
卫星状态:
在轨 (已飞行761 天)
发射日期:
2023-09-30 UTC
国别 :
美国 (US)
星等 :
--
轨道信息
数据来源 国际轨道数据
星历时间: 2025-10-30T03:50:16+0800
1天前
查看轨道信息
半长轴: 6937.222km
偏心率: 0.0001718
轨道倾角: 43.004°
近地点辐角 270.697°
升交点赤经 342.988°
平近点角 89.368°
近地点: 557.895km
远地点: 560.279km
周期: 95.838分钟
每日圈数: 15.025345
详细信息
固有亮度:
5
最大亮度:
0.3
卫星平台:
Starlink v2.0 mini
覆盖范围:
全球
运营商:
太空探索技术公司
运营商所在国:
美国
制造商(研发单位):
太空探索技术公司
制造商所在国:
美国
使用方式:
暂无
卫星简介
星链(Starlink)计划是由太空探索技术公司(SpaceX)提出的一个巨型低轨卫星互联网星座项目,计划在2019年至2024年间在太空搭建由约1.2万颗卫星组成的“星链”网络,其中1584颗将部署在地球上空550千米处的近地轨道,并从2020年开始工作。该卫星仍在工作。
2D轨道图
3D轨道图
轨道高度分析图
轨道倾角分析图
轨道综合分析图
查看轨道综合分析图